• En España
  • Lista de países
  • Para 7 días
  • Temperatura del agua
  • Mapa Satelital
  • El tiempo en el mapa
  • Informadores
  • user-avatar
    Iniciar sesión

    Tiempo cada hora Ponte de Sor

    Hoy, 24 Enero, Miércoles

    Tiempo Temperatura Precipitaciones Viento Presión Humedad
    00:00 +8°C° 0 mm 1 mps 760 mmHg 87%
    01:00 +7°C° 0 mm 0 mps 760 mmHg 87%
    02:00 +6°C° 0 mm 0 mps 760 mmHg 87%
    03:00 +6°C° 0 mm 0 mps 760 mmHg 87%
    04:00 +6°C° 0 mm 0 mps 760 mmHg 87%
    05:00 +6°C° 0 mm 0 mps 760 mmHg 87%
    06:00 +6°C° 0 mm 0 mps 760 mmHg 85%
    07:00 +7°C° 0 mm 0 mps 760 mmHg 83%
    08:00 +8°C° 0 mm 0 mps 760 mmHg 82%
    09:00 +10°C° 0 mm 0 mps 760 mmHg 74%
    10:00 +12°C° 0 mm 0 mps 760 mmHg 66%
    11:00 +15°C° 0 mm 0 mps 760 mmHg 58%
    12:00 +16°C° 0 mm 1 mps 760 mmHg 56%
    13:00 +18°C° 0 mm 1 mps 759 mmHg 54%
    14:00 +18°C° 0 mm 1 mps 759 mmHg 52%
    15:00 +15°C° 0 mm 1 mps 759 mmHg 61%
    16:00 +14°C° 0 mm 1 mps 759 mmHg 69%
    17:00 +12°C° 0 mm 1 mps 759 mmHg 78%
    18:00 +11°C° 0 mm 1 mps 759 mmHg 82%
    19:00 +11°C° 0 mm 1 mps 759 mmHg 86%
    20:00 +10°C° 0 mm 1 mps 759 mmHg 89%
    21:00 +10°C° 0 mm 1 mps 759 mmHg 91%
    22:00 +10°C° 0 mm 1 mps 759 mmHg 92%
    23:00 +10°C° 0 mm 1 mps 758 mmHg 93%

    Mañana, 25 Enero, Jueves

    Tiempo Temperatura Precipitaciones Viento Presión Humedad
    00:00 +10°C° 0 mm 1 mps 758 mmHg 94%
    01:00 +10°C° 0 mm 1 mps 758 mmHg 94%
    02:00 +10°C° 0 mm 1 mps 758 mmHg 95%
    03:00 +9°C° 0,4 mm 2 mps 757 mmHg 96%
    04:00 +9°C° 0,4 mm 2 mps 757 mmHg 96%
    05:00 +10°C° 0,4 mm 2 mps 757 mmHg 96%
    06:00 +10°C° 0,4 mm 3 mps 757 mmHg 95%
    07:00 +11°C° 0,4 mm 3 mps 757 mmHg 93%
    08:00 +11°C° 0,4 mm 3 mps 757 mmHg 91%
    09:00 +12°C° 0,1 mm 4 mps 758 mmHg 84%
    10:00 +12°C° 0,1 mm 5 mps 758 mmHg 76%
    11:00 +13°C° 0,1 mm 5 mps 758 mmHg 69%
    12:00 +13°C° 0,1 mm 6 mps 758 mmHg 65%
    13:00 +13°C° 0,1 mm 6 mps 758 mmHg 61%
    14:00 +13°C° 0,1 mm 6 mps 757 mmHg 57%
    15:00 +12°C° 0 mm 5 mps 758 mmHg 61%
    16:00 +10°C° 0 mm 4 mps 758 mmHg 66%
    17:00 +8°C° 0 mm 4 mps 758 mmHg 70%
    18:00 +8°C° 0 mm 3 mps 759 mmHg 74%
    19:00 +7°C° 0 mm 3 mps 760 mmHg 77%
    20:00 +5°C° 0 mm 3 mps 760 mmHg 81%
    21:00 +5°C° 0 mm 3 mps 761 mmHg 83%
    22:00 +5°C° 0 mm 2 mps 761 mmHg 84%
    23:00 +5°C° 0 mm 2 mps 761 mmHg 86%

    Pasado mañana, 26 Enero, Viernes

    Tiempo Temperatura Precipitaciones Viento Presión Humedad
    00:00 +5°C° 0 mm 2 mps 761 mmHg 86%
    01:00 +5°C° 0 mm 2 mps 761 mmHg 86%
    02:00 +4°C° 0 mm 2 mps 761 mmHg 87%
    03:00 +4°C° 0 mm 2 mps 762 mmHg 88%
    04:00 +4°C° 0 mm 2 mps 762 mmHg 90%
    05:00 +4°C° 0 mm 2 mps 762 mmHg 91%
    06:00 +5°C° 0 mm 2 mps 762 mmHg 88%
    07:00 +6°C° 0 mm 2 mps 763 mmHg 86%
    08:00 +6°C° 0 mm 2 mps 763 mmHg 83%
    09:00 +8°C° 0 mm 3 mps 763 mmHg 72%
    10:00 +10°C° 0 mm 4 mps 764 mmHg 61%
    11:00 +12°C° 0 mm 5 mps 764 mmHg 50%
    12:00 +12°C° 0 mm 5 mps 764 mmHg 50%
    13:00 +13°C° 0 mm 5 mps 764 mmHg 49%
    14:00 +13°C° 0 mm 5 mps 763 mmHg 49%
    15:00 +12°C° 0 mm 4 mps 764 mmHg 56%
    16:00 +10°C° 0 mm 4 mps 764 mmHg 62%
    17:00 +8°C° 0 mm 3 mps 764 mmHg 69%
    18:00 +8°C° 0 mm 3 mps 764 mmHg 74%
    19:00 +7°C° 0 mm 3 mps 764 mmHg 78%
    20:00 +5°C° 0 mm 3 mps 765 mmHg 83%
    21:00 +6°C° 0 mm 2 mps 765 mmHg 85%
    22:00 +6°C° 0 mm 2 mps 765 mmHg 87%
    23:00 +5°C° 0 mm 2 mps 765 mmHg 89%

    27 Enero, Sábado

    Tiempo Temperatura Precipitaciones Viento Presión Humedad
    00:00 +5°C° 0 mm 2 mps 765 mmHg 89%
    01:00 +5°C° 0 mm 2 mps 765 mmHg 89%
    02:00 +5°C° 0 mm 2 mps 765 mmHg 89%
    03:00 +4°C° 0 mm 2 mps 765 mmHg 89%
    04:00 +4°C° 0 mm 2 mps 764 mmHg 89%
    05:00 +4°C° 0 mm 2 mps 764 mmHg 88%
    06:00 +5°C° 0 mm 2 mps 765 mmHg 85%
    07:00 +6°C° 0 mm 2 mps 765 mmHg 81%
    08:00 +6°C° 0 mm 2 mps 765 mmHg 77%
    09:00 +9°C° 0 mm 3 mps 765 mmHg 69%
    10:00 +11°C° 0 mm 3 mps 765 mmHg 62%
    11:00 +13°C° 0 mm 4 mps 765 mmHg 54%
    12:00 +14°C° 0 mm 4 mps 764 mmHg 53%
    13:00 +15°C° 0 mm 4 mps 764 mmHg 53%
    14:00 +15°C° 0 mm 5 mps 763 mmHg 52%
    15:00 +14°C° 0 mm 4 mps 763 mmHg 60%
    16:00 +12°C° 0 mm 3 mps 763 mmHg 68%
    17:00 +10°C° 0 mm 3 mps 763 mmHg 76%
    18:00 +10°C° 0 mm 3 mps 763 mmHg 80%
    19:00 +9°C° 0 mm 3 mps 763 mmHg 84%
    20:00 +9°C° 0 mm 3 mps 763 mmHg 89%
    21:00 +9°C° 0 mm 3 mps 763 mmHg 89%
    22:00 +9°C° 0 mm 3 mps 763 mmHg 89%
    23:00 +9°C° 0 mm 3 mps 763 mmHg 89%

    28 Enero, Domingo

    Tiempo Temperatura Precipitaciones Viento Presión Humedad
    00:00 +8°C° 0 mm 3 mps 763 mmHg 88%
    01:00 +8°C° 0 mm 3 mps 763 mmHg 86%
    02:00 +8°C° 0 mm 3 mps 763 mmHg 85%
    03:00 +8°C° 0 mm 3 mps 763 mmHg 83%
    04:00 +8°C° 0 mm 3 mps 763 mmHg 82%
    05:00 +7°C° 0 mm 3 mps 763 mmHg 80%
    06:00 +7°C° 0 mm 3 mps 764 mmHg 77%
    07:00 +7°C° 0 mm 3 mps 764 mmHg 75%
    08:00 +7°C° 0 mm 3 mps 765 mmHg 72%
    09:00 +9°C° 0 mm 3 mps 764 mmHg 63%
    10:00 +11°C° 0 mm 3 mps 764 mmHg 54%
    11:00 +13°C° 0 mm 3 mps 764 mmHg 44%
    12:00 +14°C° 0 mm 3 mps 763 mmHg 43%
    13:00 +16°C° 0 mm 3 mps 763 mmHg 42%
    14:00 +16°C° 0 mm 3 mps 762 mmHg 40%
    15:00 +15°C° 0 mm 2 mps 762 mmHg 46%
    16:00 +13°C° 0 mm 2 mps 762 mmHg 52%
    17:00 +10°C° 0 mm 2 mps 762 mmHg 58%
    18:00 +9°C° 0 mm 2 mps 762 mmHg 59%
    19:00 +9°C° 0 mm 2 mps 762 mmHg 60%
    20:00 +8°C° 0 mm 2 mps 763 mmHg 61%
    21:00 +7°C° 0 mm 2 mps 763 mmHg 60%
    22:00 +7°C° 0 mm 2 mps 762 mmHg 58%
    23:00 +7°C° 0 mm 2 mps 762 mmHg 56%

    29 Enero, Lunes

    Tiempo Temperatura Precipitaciones Viento Presión Humedad
    00:00 +7°C° 0 mm 2 mps 762 mmHg 56%
    01:00 +7°C° 0 mm 3 mps 762 mmHg 55%
    02:00 +7°C° 0 mm 3 mps 762 mmHg 54%
    03:00 +7°C° 0 mm 3 mps 762 mmHg 55%
    04:00 +7°C° 0 mm 3 mps 762 mmHg 57%
    05:00 +7°C° 0 mm 3 mps 762 mmHg 58%
    06:00 +7°C° 0 mm 3 mps 762 mmHg 58%
    07:00 +7°C° 0 mm 4 mps 762 mmHg 58%
    08:00 +7°C° 0 mm 4 mps 763 mmHg 57%
    09:00 +10°C° 0 mm 4 mps 763 mmHg 54%
    10:00 +12°C° 0 mm 5 mps 762 mmHg 51%
    11:00 +14°C° 0 mm 5 mps 762 mmHg 48%
    12:00 +15°C° 0 mm 5 mps 762 mmHg 48%
    13:00 +15°C° 0 mm 5 mps 761 mmHg 48%
    14:00 +16°C° 0 mm 5 mps 761 mmHg 49%
    15:00 +14°C° 0 mm 4 mps 761 mmHg 55%
    16:00 +12°C° 0 mm 3 mps 761 mmHg 62%
    17:00 +12°C° 0 mm 2 mps 761 mmHg 68%
    18:00 +10°C° 0 mm 2 mps 761 mmHg 70%
    19:00 +9°C° 0 mm 2 mps 762 mmHg 72%
    20:00 +8°C° 0 mm 2 mps 762 mmHg 74%
    21:00 +8°C° 0 mm 2 mps 762 mmHg 74%
    22:00 +8°C° 0 mm 2 mps 762 mmHg 74%
    23:00 +7°C° 0 mm 2 mps 762 mmHg 75%
    Mostrar más